Location: *
(1.3500°S, 147.5000°W)
Time: 21:39:04
(UTC+00:00)

N. Korean satellite - Visible Passes

Search period start: 19 June 2021 00:00
Search period end: 29 June 2021 00:00
Orbit: 450 x 500 km, 97.2° (Epoch: 18 June)

Date Brightness Start Highest point End Pass type
(mag) Time Alt. Az. Time Alt. Az. Time Alt. Az.
19 Jun 7.3 14:35:09 10° NNE 14:38:43 54° E 14:42:19 10° S visible
20 Jun 9.2 14:08:52 10° NE 14:11:31 19° ESE 14:14:11 10° SSE visible
21 Jun 7.5 15:14:04 10° NNW 15:17:17 30° W 15:20:33 10° SW visible
22 Jun 6.6 14:46:25 10° NNE 14:50:04 88° E 14:53:46 10° S visible
23 Jun 8.5 14:19:39 10° NE 14:22:52 29° ESE 14:26:05 10° SSE visible
24 Jun 9.7 13:54:43 10° E 13:55:39 11° ESE 13:56:35 10° ESE visible
24 Jun 8.1 15:25:54 10° NNW 15:28:37 20° W 15:31:22 10° SW visible
25 Jun 6.7 14:57:47 10° N 15:01:23 57° W 15:05:00 10° SSW visible
26 Jun 7.6 14:30:39 10° NNE 14:34:09 45° E 14:37:40 10° S visible
27 Jun 9.4 14:04:34 10° ENE 14:06:56 16° ESE 14:09:17 10° SE visible
28 Jun 7.3 15:09:17 10° NNW 15:12:40 35° W 15:16:03 10° SSW visible
